Ukiah, CA

1:24 PM PDT on April 28, 2017 (GMT -0700)
Ukiah Municipal

Weather History for KUKI - January, 2013

Change the Weather History Date:

Saturday, January 5, 2013

  Actual Average Record
Temperature  
Mean Temperature 37 °F 46 °F  
Max Temperature 44 °F 55 °F 71 °F (1984)
Min Temperature 30 °F 36 °F 18 °F (1910)
Degree Days  
Heating Degree Days 28 19  
Month to date heating degree days 122 96  
Since 1 July heating degree days 1162 1326  
Cooling Degree Days 0 0  
Month to date cooling degree days 0 0  
Year to date cooling degree days 0 0  
Moisture  
Dew Point 35 °F    
Average Humidity 91    
Maximum Humidity 100    
Minimum Humidity 82    
Precipitation  
Precipitation 0.78 in 0.36 in 3.32 in (1959)
Month to date precipitation 0.78 2.03  
Year to date precipitation 0.78 2.03  
Since 1 July precipitation 23.48  
Snow  
Snow 0.00 in - - ()
Month to date snowfall 0.0  
Since 1 July snowfall 0.0  
Snow Depth 0.00 in    
Sea Level Pressure  
Sea Level Pressure 30.19 in    
Wind  
Wind Speed 1 mph (NW)    
Max Wind Speed 10 mph    
Max Gust Speed 13 mph    
Visibility 4 miles    
Events Fog , Rain    
T = Trace of Precipitation, MM = Missing Value Source: NWS Daily Summary

Daily Weather History Graph

Daily Weather History Graph

Search for Another Location

Airport or City:

Trip Planner

Search our weather history database for the weather conditions in past years. The results will help you decide how hot, cold, wet, or windy it might be!

Date:

Astronomy

Jan. 05, 2013 Rise Set
Actual Time 7:32 AM PST 5:04 PM PST
Civil Twilight 7:02 AM PST 5:34 PM PST
Nautical Twilight 6:29 AM PST 6:07 PM PST
Astronomical Twilight 5:56 AM PST 6:40 PM PST
Moon 12:46 AM PST (1/5) 11:56 AM PST (1/5)
Length of Visible Light 10h 31m
Length of Day
9h 32m
Last Quarter, 43% of the Moon is Illuminated
Jan 5
Last Quarter
Jan 11
New
Jan 18
First Quarter
Jan 26
Full
Feb 3
Last Quarter

Hourly Weather History & Observations

Time (PST) Temp. Windchill Dew Point Humidity Pressure Visibility Wind Dir Wind Speed Gust Speed Precip Events Conditions
12:56 AM 33.1 °F - 30.9 °F 92% 30.22 in 7.0 mi Calm Calm - N/A   Clear
1:03 AM 33.8 °F - 32.0 °F 93% 30.22 in 2.0 mi Calm Calm - N/A   Partly Cloudy
1:06 AM 33.8 °F - 32.0 °F 93% 30.22 in 1.0 mi Calm Calm - N/A   Mist
1:16 AM 33.8 °F - 32.0 °F 93% 30.22 in 2.0 mi Calm Calm - N/A   Partly Cloudy
1:56 AM 32.0 °F - 30.9 °F 96% 30.22 in 10.0 mi Calm Calm - N/A   Clear
2:56 AM 30.9 °F - 30.0 °F 96% 30.23 in 10.0 mi Calm Calm - N/A   Clear
3:13 AM 30.2 °F - 28.4 °F 93% 30.23 in 1.5 mi Calm Calm - N/A   Partly Cloudy
3:15 AM 30.2 °F - 28.4 °F 93% 30.24 in 1.0 mi Calm Calm - N/A   Mist
3:22 AM 30.2 °F - 28.4 °F 93% 30.24 in 0.5 mi Calm Calm - N/A Fog Light Freezing Fog
3:32 AM 30.2 °F - 30.2 °F 100% 30.24 in 2.5 mi Calm Calm - N/A   Mostly Cloudy
3:37 AM 32.0 °F - 30.2 °F 93% 30.24 in 9.0 mi Calm Calm - N/A   Scattered Clouds
3:56 AM 30.9 °F 27.5 °F 30.0 °F 96% 30.24 in 8.0 mi SE 3.5 mph - N/A   Partly Cloudy
4:06 AM 30.2 °F - 30.2 °F 100% 30.24 in 1.5 mi Calm Calm - N/A   Mostly Cloudy
4:27 AM 30.2 °F - 30.2 °F 100% 30.23 in 2.0 mi Calm Calm - N/A   Overcast
4:34 AM 32.0 °F - 30.2 °F 93% 30.23 in 9.0 mi Calm Calm - N/A   Overcast
4:56 AM 30.9 °F - 28.9 °F 92% 30.23 in 9.0 mi Calm Calm - N/A   Overcast
5:06 AM 30.2 °F - 30.2 °F 100% 30.23 in 1.8 mi Calm Calm - N/A   Overcast
5:12 AM 30.2 °F - 30.2 °F 100% 30.23 in 0.2 mi Calm Calm - N/A Fog Light Freezing Fog
5:36 AM 30.2 °F - 30.2 °F 100% 30.23 in 0.2 mi Calm Calm - N/A Fog Light Freezing Fog
5:56 AM 32.0 °F - 30.9 °F 96% 30.24 in 0.2 mi Calm Calm - N/A Fog Fog
6:30 AM 30.2 °F - 30.2 °F 100% 30.24 in 0.5 mi Calm Calm - N/A Fog Light Freezing Fog
6:56 AM 32.0 °F - 30.0 °F 92% 30.25 in 0.5 mi Calm Calm - N/A Fog Fog
7:56 AM 32.0 °F - 32.0 °F 100% 30.26 in 0.5 mi Calm Calm - N/A Fog Fog
8:04 AM 33.8 °F - 32.0 °F 93% 30.25 in 0.2 mi Calm Calm - N/A Fog Fog
8:56 AM 33.1 °F - 33.1 °F 100% 30.23 in 0.2 mi Calm Calm - N/A Fog Fog
9:50 AM 33.8 °F - 33.8 °F 100% 30.21 in 0.5 mi Calm Calm - N/A Fog Fog
9:56 AM 35.1 °F - 34.0 °F 96% 30.21 in 1.5 mi Calm Calm - N/A   Overcast
10:05 AM 35.6 °F - 35.6 °F 100% 30.21 in 3.0 mi Calm Calm - N/A   Mostly Cloudy
10:23 AM 35.6 °F 31.7 °F 35.6 °F 100% 30.23 in 6.0 mi WSW 4.6 mph - N/A   Mostly Cloudy
10:35 AM 37.4 °F 32.8 °F 35.6 °F 93% 30.23 in 7.0 mi ENE 5.8 mph - N/A   Mostly Cloudy
10:56 AM 37.0 °F 31.0 °F 36.0 °F 96% 30.25 in 9.0 mi West 8.1 mph - N/A   Overcast
11:06 AM 37.4 °F 33.8 °F 35.6 °F 93% 30.24 in 8.0 mi West 4.6 mph - N/A   Overcast
11:56 AM 39.9 °F - 37.0 °F 89% 30.20 in 10.0 mi Calm Calm - N/A   Overcast
12:25 PM 42.8 °F 41.1 °F 37.4 °F 81% 30.18 in 10.0 mi NNW 3.5 mph - N/A   Overcast
12:51 PM 42.8 °F - 37.4 °F 81% 30.17 in 10.0 mi Calm Calm - N/A   Overcast
12:56 PM 42.1 °F - 37.9 °F 85% 30.18 in 10.0 mi Calm Calm - N/A   Overcast
1:29 PM 42.8 °F 41.1 °F 39.2 °F 87% 30.17 in 2.5 mi WNW 3.5 mph - 0.02 in Rain Light Rain
1:46 PM 42.8 °F - 39.2 °F 87% 30.15 in 1.2 mi Calm Calm - 0.09 in Rain Heavy Rain
1:56 PM 43.0 °F - 41.0 °F 93% 30.15 in 1.2 mi Calm Calm - 0.14 in Rain Rain
2:19 PM 44.6 °F 43.1 °F 41.0 °F 87% 30.14 in 3.0 mi NW 3.5 mph - 0.03 in Rain Light Rain
2:45 PM 42.8 °F 41.1 °F 41.0 °F 93% 30.14 in 2.5 mi East 3.5 mph - 0.05 in Rain Light Rain
2:54 PM 42.8 °F - 41.0 °F 93% 30.14 in 1.8 mi Calm Calm - 0.06 in Rain Light Rain
2:56 PM 42.1 °F - 42.1 °F 100% 30.14 in 1.8 mi Calm Calm - 0.06 in Rain Light Rain
3:21 PM 42.8 °F - 41.0 °F 93% 30.14 in 1.2 mi Calm Calm - 0.11 in Rain Rain
4:00 PM 42.8 °F - 42.8 °F 100% 30.12 in 3.0 mi Calm Calm - 0.01 in Rain Light Rain
4:24 PM 42.8 °F - 42.8 °F 100% 30.13 in 2.5 mi Calm Calm - 0.02 in Rain Light Rain
4:56 PM 43.0 °F - 42.1 °F 97% 30.13 in 3.0 mi Calm Calm - 0.06 in Rain Rain
5:16 PM 42.8 °F - 42.8 °F 100% 30.12 in 3.0 mi Calm Calm - 0.03 in Rain Light Rain
5:56 PM 44.1 °F 40.8 °F 42.1 °F 93% 30.12 in 6.0 mi NW 5.8 mph - 0.06 in Rain Light Rain
6:56 PM 44.1 °F 41.5 °F 41.0 °F 89% 30.12 in 7.0 mi NNW 4.6 mph - 0.08 in Rain Light Rain
7:56 PM 43.0 °F 38.8 °F 39.9 °F 89% 30.12 in 6.0 mi NNW 6.9 mph - 0.11 in Rain Rain
8:56 PM 43.0 °F 40.3 °F 39.9 °F 89% 30.11 in 10.0 mi NW 4.6 mph - 0.05 in Rain Light Rain
9:56 PM 42.1 °F - 41.0 °F 96% 30.13 in 9.0 mi Calm Calm - 0.01 in Rain Light Rain
10:56 PM 42.1 °F - 41.0 °F 96% 30.12 in 10.0 mi Calm Calm - 0.02 in Rain Light Rain
11:09 PM 42.8 °F - 41.0 °F 93% 30.10 in 10.0 mi Calm Calm - 0.00 in   Overcast
11:41 PM 41.0 °F - 39.2 °F 93% 30.10 in 8.0 mi Calm Calm - 0.00 in   Overcast
11:56 PM 41.0 °F - 41.0 °F 100% 30.10 in 6.0 mi Calm Calm - 0.00 in   Overcast